TimeCDT,TemperatureF,Dew PointF,Humidity,Sea Level PressureIn,VisibilityMPH,Wind Direction,Wind SpeedMPH,Gust SpeedMPH,PrecipitationIn,Events,Conditions,WindDirDegrees,DateUTC
12:10 AM,75.2,71.6,89,30.07,10.0,Calm,Calm,-,N/A,,Mostly Cloudy,0,2013-05-20 05:10:00
12:42 AM,75.2,71.6,89,30.08,10.0,Calm,Calm,-,N/A,,Mostly Cloudy,0,2013-05-20 05:42:00
12:53 AM,75.9,71.1,85,30.07,10.0,Calm,Calm,-,N/A,,Scattered Clouds,0,2013-05-20 05:53:00
1:53 AM,73.0,69.1,87,30.04,9.0,Calm,Calm,-,N/A,,Clear,0,2013-05-20 06:53:00
2:53 AM,75.0,71.1,87,30.00,10.0,Calm,Calm,-,N/A,,Clear,0,2013-05-20 07:53:00
3:53 AM,75.0,71.1,87,29.99,10.0,Calm,Calm,-,N/A,,Clear,0,2013-05-20 08:53:00
4:37 AM,75.2,71.6,89,29.98,10.0,South,5.8,-,N/A,,Partly Cloudy,190,2013-05-20 09:37:00
4:53 AM,75.0,71.1,87,29.98,10.0,SSW,5.8,-,N/A,,Partly Cloudy,200,2013-05-20 09:53:00
5:53 AM,75.9,71.1,85,29.99,10.0,SW,5.8,-,N/A,,Clear,220,2013-05-20 10:53:00
6:53 AM,77.0,71.1,82,30.03,10.0,Variable,3.5,-,N/A,,Clear,0,2013-05-20 11:53:00
7:34 AM,78.8,71.6,78,30.04,10.0,Calm,Calm,-,N/A,,Mostly Cloudy,0,2013-05-20 12:34:00
7:53 AM,78.1,72.0,81,30.04,10.0,SW,3.5,-,N/A,,Mostly Cloudy,220,2013-05-20 12:53:00
8:24 AM,78.8,71.6,78,30.06,10.0,Calm,Calm,-,N/A,,Scattered Clouds,0,2013-05-20 13:24:00
8:53 AM,80.1,71.1,74,30.06,10.0,Variable,4.6,-,N/A,,Scattered Clouds,0,2013-05-20 13:53:00
9:53 AM,80.1,71.1,74,30.07,10.0,SE,6.9,-,N/A,,Clear,140,2013-05-20 14:53:00
10:53 AM,81.0,71.1,72,30.08,10.0,SE,10.4,-,N/A,,Clear,140,2013-05-20 15:53:00
11:53 AM,82.0,71.1,69,30.07,10.0,SE,9.2,-,N/A,,Clear,130,2013-05-20 16:53:00
12:53 PM,82.9,69.1,63,30.06,10.0,SSE,6.9,-,N/A,,Clear,160,2013-05-20 17:53:00
1:53 PM,82.9,71.1,67,30.05,10.0,South,8.1,-,N/A,,Clear,190,2013-05-20 18:53:00
2:53 PM,82.0,70.0,67,30.04,10.0,Variable,6.9,-,N/A,,Clear,0,2013-05-20 19:53:00
3:53 PM,82.0,70.0,67,30.03,10.0,South,9.2,-,N/A,,Clear,180,2013-05-20 20:53:00
4:53 PM,82.0,71.1,69,30.01,10.0,Variable,6.9,-,N/A,,Clear,0,2013-05-20 21:53:00
5:53 PM,81.0,71.1,72,30.00,10.0,Variable,5.8,-,N/A,,Clear,0,2013-05-20 22:53:00
6:53 PM,80.1,71.1,74,29.99,10.0,Variable,3.5,-,N/A,,Clear,0,2013-05-20 23:53:00
7:53 PM,79.0,71.1,77,29.99,10.0,SW,3.5,-,N/A,,Clear,230,2013-05-21 00:53:00
8:53 PM,79.0,70.0,74,29.99,10.0,Variable,4.6,-,N/A,,Clear,0,2013-05-21 01:53:00
9:53 PM,78.1,71.1,79,30.01,10.0,SSW,3.5,-,N/A,,Clear,210,2013-05-21 02:53:00
10:53 PM,78.1,69.1,74,30.01,10.0,Calm,Calm,-,N/A,,Clear,0,2013-05-21 03:53:00
11:53 PM,78.1,70.0,76,30.00,10.0,Calm,Calm,-,N/A,,Clear,0,2013-05-21 04:53:00